TimeMST,TemperatureF,Dew PointF,Humidity,Sea Level PressureIn,VisibilityMPH,Wind Direction,Wind SpeedMPH,Gust SpeedMPH,PrecipitationIn,Events,Conditions,WindDirDegrees,DateUTC
12:15 AM,30.2,8.6,40,29.85,10.0,WNW,5.8,-,N/A,,Overcast,290,2013-02-26 07:15:00
12:35 AM,30.2,8.6,40,29.85,10.0,West,4.6,-,N/A,,Overcast,270,2013-02-26 07:35:00
12:55 AM,30.2,8.6,40,29.86,10.0,WNW,4.6,-,N/A,,Overcast,300,2013-02-26 07:55:00
1:15 AM,28.4,15.8,59,29.86,10.0,NW,10.4,-,N/A,,Overcast,310,2013-02-26 08:15:00
1:36 AM,26.6,19.4,74,29.87,9.0,West,6.9,-,N/A,,Overcast,280,2013-02-26 08:36:00
1:55 AM,26.6,19.4,74,29.87,7.0,SW,6.9,-,N/A,,Overcast,230,2013-02-26 08:55:00
2:15 AM,26.6,19.4,74,29.87,7.0,SW,12.7,-,N/A,,Overcast,220,2013-02-26 09:15:00
2:35 AM,26.6,19.4,74,29.88,4.0,WSW,5.8,-,N/A,,Overcast,250,2013-02-26 09:35:00
2:55 AM,26.6,19.4,74,29.87,10.0,WSW,6.9,-,N/A,,Overcast,240,2013-02-26 09:55:00
3:15 AM,26.6,17.6,69,29.86,10.0,SSW,5.8,-,N/A,,Overcast,210,2013-02-26 10:15:00
3:35 AM,28.4,14.0,55,29.87,10.0,West,4.6,-,N/A,,Overcast,260,2013-02-26 10:35:00
3:55 AM,28.4,12.2,51,29.87,10.0,West,6.9,-,N/A,,Mostly Cloudy,260,2013-02-26 10:55:00
4:15 AM,28.4,12.2,51,29.87,10.0,West,6.9,-,N/A,,Mostly Cloudy,260,2013-02-26 11:15:00
4:35 AM,28.4,10.4,47,29.87,10.0,West,9.2,-,N/A,,Overcast,270,2013-02-26 11:35:00
4:55 AM,28.4,10.4,47,29.87,10.0,West,11.5,19.6,N/A,,Overcast,260,2013-02-26 11:55:00
5:35 AM,28.4,10.4,47,29.89,10.0,West,9.2,-,N/A,,Overcast,270,2013-02-26 12:35:00
5:55 AM,28.4,8.6,43,29.90,10.0,West,5.8,-,N/A,,Overcast,280,2013-02-26 12:55:00
6:35 AM,28.4,8.6,43,29.92,10.0,West,6.9,-,N/A,,Overcast,260,2013-02-26 13:35:00
6:55 AM,26.6,10.4,51,29.92,10.0,WSW,4.6,-,N/A,,Overcast,250,2013-02-26 13:55:00
7:15 AM,26.6,10.4,51,29.93,10.0,WNW,3.5,-,N/A,,Overcast,300,2013-02-26 14:15:00
7:35 AM,26.6,10.4,51,29.94,10.0,WNW,4.6,-,N/A,,Mostly Cloudy,300,2013-02-26 14:35:00
7:55 AM,28.4,10.4,47,29.94,10.0,Calm,Calm,-,N/A,,Scattered Clouds,0,2013-02-26 14:55:00
8:15 AM,28.4,8.6,43,29.95,10.0,Calm,Calm,-,N/A,,Partly Cloudy,0,2013-02-26 15:15:00
8:55 AM,30.2,8.6,40,29.97,10.0,Calm,Calm,-,N/A,,Clear,0,2013-02-26 15:55:00
9:15 AM,30.2,8.6,40,29.98,10.0,East,4.6,-,N/A,,Clear,80,2013-02-26 16:15:00
9:35 AM,30.2,8.6,40,29.98,10.0,Calm,Calm,-,N/A,,Partly Cloudy,0,2013-02-26 16:35:00
9:55 AM,32.0,8.6,38,29.99,10.0,Calm,Calm,-,N/A,,Partly Cloudy,0,2013-02-26 16:55:00
10:15 AM,33.8,8.6,35,29.98,10.0,Calm,Calm,-,N/A,,Partly Cloudy,0,2013-02-26 17:15:00
10:35 AM,33.8,8.6,35,29.98,10.0,Calm,Calm,-,N/A,,Clear,0,2013-02-26 17:35:00
10:55 AM,35.6,8.6,33,29.98,10.0,North,6.9,-,N/A,,Clear,10,2013-02-26 17:55:00
11:15 AM,35.6,6.8,30,29.98,10.0,NW,6.9,-,N/A,,Scattered Clouds,310,2013-02-26 18:15:00
11:35 AM,35.6,6.8,30,29.98,10.0,North,3.5,-,N/A,,Partly Cloudy,10,2013-02-26 18:35:00
12:15 PM,35.6,6.8,30,29.99,10.0,NNE,13.8,21.9,N/A,,Mostly Cloudy,30,2013-02-26 19:15:00
12:35 PM,35.6,6.8,30,29.99,10.0,North,10.4,19.6,N/A,,Overcast,10,2013-02-26 19:35:00
12:55 PM,35.6,8.6,33,29.99,10.0,NNE,12.7,18.4,N/A,,Overcast,20,2013-02-26 19:55:00
1:15 PM,37.4,10.4,33,29.99,10.0,North,12.7,19.6,N/A,,Overcast,350,2013-02-26 20:15:00
1:35 PM,35.6,6.8,30,29.99,10.0,NNW,13.8,-,N/A,,Overcast,340,2013-02-26 20:35:00
1:55 PM,37.4,8.6,30,29.99,10.0,NNE,8.1,-,N/A,,Overcast,30,2013-02-26 20:55:00
2:15 PM,37.4,8.6,30,29.99,10.0,Calm,Calm,-,N/A,,Overcast,0,2013-02-26 21:15:00
2:35 PM,37.4,10.4,33,29.99,10.0,NW,10.4,-,N/A,,Mostly Cloudy,310,2013-02-26 21:35:00
2:55 PM,37.4,8.6,30,30.00,10.0,North,5.8,19.6,N/A,,Mostly Cloudy,10,2013-02-26 21:55:00
3:15 PM,37.4,6.8,28,30.01,10.0,North,8.1,-,N/A,,Mostly Cloudy,360,2013-02-26 22:15:00
3:35 PM,35.6,6.8,30,30.02,10.0,North,9.2,-,N/A,,Overcast,10,2013-02-26 22:35:00
3:55 PM,35.6,6.8,30,30.03,10.0,NNE,12.7,16.1,N/A,,Overcast,20,2013-02-26 22:55:00
4:15 PM,35.6,6.8,30,30.03,10.0,North,17.3,-,N/A,,Overcast,360,2013-02-26 23:15:00
4:35 PM,33.8,6.8,32,30.04,10.0,NNE,12.7,-,N/A,,Overcast,20,2013-02-26 23:35:00
5:35 PM,32.0,8.6,38,30.07,10.0,NNE,5.8,-,N/A,,Overcast,20,2013-02-27 00:35:00
6:15 PM,30.2,8.6,40,30.09,10.0,North,9.2,-,N/A,,Overcast,360,2013-02-27 01:15:00
6:35 PM,30.2,12.2,47,30.10,10.0,NW,6.9,-,N/A,,Mostly Cloudy,320,2013-02-27 01:35:00
6:55 PM,28.4,12.2,51,30.10,10.0,WNW,3.5,-,N/A,,Clear,300,2013-02-27 01:55:00
7:15 PM,28.4,12.2,51,30.11,10.0,West,3.5,-,N/A,,Mostly Cloudy,260,2013-02-27 02:15:00
7:35 PM,28.4,12.2,51,30.11,10.0,Calm,Calm,-,N/A,,Scattered Clouds,0,2013-02-27 02:35:00
7:55 PM,24.8,10.4,54,30.12,10.0,Calm,Calm,-,N/A,,Mostly Cloudy,0,2013-02-27 02:55:00
8:15 PM,28.4,15.8,59,30.12,10.0,Calm,Calm,-,N/A,,Mostly Cloudy,0,2013-02-27 03:15:00
8:35 PM,26.6,14.0,59,30.12,10.0,NE,4.6,-,N/A,,Mostly Cloudy,40,2013-02-27 03:35:00
8:55 PM,24.8,12.2,59,30.13,10.0,WNW,4.6,-,N/A,,Scattered Clouds,300,2013-02-27 03:55:00
9:15 PM,24.8,12.2,59,30.13,10.0,South,3.5,-,N/A,,Partly Cloudy,180,2013-02-27 04:15:00
10:15 PM,23.0,8.6,54,30.14,10.0,SW,6.9,-,N/A,,Clear,220,2013-02-27 05:15:00
10:35 PM,24.8,10.4,54,30.14,10.0,SW,5.8,-,N/A,,Clear,230,2013-02-27 05:35:00
10:55 PM,23.0,10.4,59,30.15,10.0,WSW,3.5,-,N/A,,Clear,240,2013-02-27 05:55:00
11:15 PM,24.8,10.4,54,30.15,10.0,WSW,6.9,-,N/A,,Clear,240,2013-02-27 06:15:00
11:35 PM,23.0,10.4,59,30.15,10.0,SW,6.9,-,N/A,,Clear,230,2013-02-27 06:35:00
11:55 PM,21.2,10.4,63,30.16,10.0,NW,4.6,-,N/A,,Clear,320,2013-02-27 06:55:00